Location: Wildlife_Club
(35.6000°N, 81.4330°W)
Time: 05:05:22
(UTC-04:00)

A-11 Canister half - Pass Details

Date: 21 August 2020
Orbit: 1514 x 1686 km, 47.2° (Epoch: 23 September)

Event Time Altitude Azimuth Distance (km) Brightness Sun altitude
Rises 01:18:28 0° 288° (WNW) 4,884 11.9 -42.4°
Reaches altitude 10° 01:23:39 10° 266° (W) 3,919 11.1 -42.4°
Enters shadow 01:23:43 10° 266° (W) 3,910 11.1 -42.4°
